Location: Ferchesar
(52.6477°N, 12.4298°E)
Time: 10:11:36
(UTC+01:00)

Vanguard 1 - Pass Details

Date: 09 December 2021
Orbit: 652 x 3830 km, 34.2° (Epoch: 24 January)

Event Time Altitude Azimuth Distance (km) Brightness Sun altitude
Rises 03:15:59 0° 269° (W) 7,799 - -42.8°
Reaches altitude 10° 03:21:48 10° 262° (W) 6,905 - -42.0°
Maximum altitude 03:41:24 37° 206° (SSW) 4,686 - -39.2°
Exits shadow 03:41:51 37° 204° (SSW) 4,667 13.1 -39.1°
Drops below altitude 10° 03:56:50 10° 148° (SSE) 5,466 14.0 -36.9°
Sets 04:00:48 0° 140° (SE) 6,084 14.5 -36.3°
